Weather History for KM63 - May, 2014

Change the Weather History Date:

Saturday, May 3, 2014

  Actual Average Record
Temperature  
Mean Temperature 68 °F -  
Max Temperature 83 °F - - ()
Min Temperature 53 °F - - ()
Cooling Degree Days 2    
Growing Degree Days 18 (Base 50)    
Moisture  
Dew Point 16 °F    
Average Humidity 13    
Maximum Humidity 25    
Minimum Humidity 8    
Precipitation  
Precipitation 0.00 in - - ()
Sea Level Pressure  
Sea Level Pressure 30.00 in    
Wind  
Wind Speed 10 mph (SE)    
Max Wind Speed 16 mph    
Max Gust Speed 28 mph    
Visibility 12 miles    
Events      
Averages and records for this station are not official NWS values.
T = Trace of Precipitation, MM = Missing Value Source: NWS Daily Summary

Daily Weather History Graph

Daily Weather History Graph

Search for Another Location

Airport or City:

Trip Planner

Search our weather history database for the weather conditions in past years. The results will help you decide how hot, cold, wet, or windy it might be!

Date:

Astronomy

May. 03, 2014 Rise Set
Actual Time 6:16 AM MDT 7:46 PM MDT
Civil Twilight 5:50 AM MDT 8:12 PM MDT
Nautical Twilight 5:19 AM MDT 8:44 PM MDT
Astronomical Twilight 4:46 AM MDT 9:17 PM MDT
Moon 9:51 AM MDT (5/3) 11:52 PM MDT (5/3)
Length of Visible Light 14h 22m
Length of Day
13h 30m
Waxing Crescent, 20% of the Moon is Illuminated
May 3
Waxing Crescent
May 6
First Quarter
May 14
Full
May 21
Last Quarter
May 28
New

Hourly Weather History & Observations

Time (MDT) Temp. Dew Point Humidity Pressure Visibility Wind Dir Wind Speed Gust Speed Precip Events Conditions
12:56 AM 61.9 °F 16.3 °F 17% 29.96 in 12.0 mi East 10.4 mph - N/A   Clear
2:56 AM 60.4 °F 16.2 °F 18% 29.94 in 12.0 mi East 9.2 mph - N/A   Clear
3:56 AM 61.5 °F 15.4 °F 17% 29.94 in 12.0 mi East 12.7 mph - N/A   Clear
4:56 AM 53.4 °F 17.4 °F 24% 29.97 in 12.0 mi South 6.9 mph - N/A   Clear
5:56 AM 54.1 °F 17.4 °F 24% 30.12 in 12.0 mi SSE 5.8 mph - N/A   Clear
6:56 AM 53.8 °F 17.8 °F 24% 29.99 in 12.0 mi SSE 9.2 mph - N/A   Clear
7:56 AM 57.0 °F 21.2 °F 25% 30.01 in 9.0 mi South 5.8 mph - N/A   Clear
8:56 AM 63.1 °F 22.1 °F 21% 30.17 in 11.0 mi South 5.8 mph - N/A   Clear
9:56 AM 69.4 °F 19.0 °F 15% 30.02 in 12.0 mi SE 9.2 mph - N/A   Clear
10:56 AM 72.0 °F 17.8 °F 13% 30.01 in 12.0 mi SE 10.4 mph 18.4 mph N/A   Clear
11:41 AM 75.2 °F 15.8 °F 11% 30.18 in 12.0 mi ESE 15.0 mph 20.7 mph N/A   Clear
11:49 AM 75.2 °F 14.0 °F 10% 30.17 in 12.0 mi SSE 16.1 mph 20.7 mph N/A   Partly Cloudy
12:00 PM 75.2 °F 14.0 °F 10% 30.17 in 12.0 mi SE 13.8 mph 20.7 mph N/A   Partly Cloudy
12:56 PM 78.1 °F 16.3 °F 10% 29.96 in 12.0 mi South 9.2 mph 18.4 mph N/A   Partly Cloudy
1:56 PM 79.0 °F 15.3 °F 9% 29.94 in 12.0 mi SSE 12.7 mph 18.4 mph N/A   Partly Cloudy
2:19 PM 80.6 °F 15.8 °F 9% 30.11 in 12.0 mi SE 15.0 mph 19.6 mph N/A   Partly Cloudy
2:42 PM 80.6 °F 15.8 °F 9% 30.10 in 12.0 mi South 11.5 mph 23.0 mph N/A   Clear
2:55 PM 78.8 °F 15.8 °F 9% 30.10 in 12.0 mi South 12.7 mph 27.6 mph N/A   Clear
2:56 PM 79.9 °F 15.4 °F 9% 29.91 in 12.0 mi South 10.4 mph 27.6 mph N/A   Clear
3:56 PM 80.2 °F 14.7 °F 9% 29.89 in 12.0 mi East 10.4 mph 18.4 mph N/A   Clear
4:56 PM 82.0 °F 15.3 °F 8% 30.06 in 12.0 mi Variable 5.8 mph 12.7 mph N/A   Clear
5:56 PM 80.2 °F 13.6 °F 8% 29.88 in 12.0 mi ESE 11.5 mph 16.1 mph N/A   Clear
6:56 PM 80.1 °F 14.0 °F 8% 29.88 in 12.0 mi SE 6.9 mph - N/A   Clear
7:56 PM 78.1 °F 13.8 °F 9% 29.89 in 12.0 mi ESE 12.7 mph - N/A   Clear
8:56 PM 72.0 °F 14.5 °F 11% 29.90 in 12.0 mi East 10.4 mph - N/A   Partly Cloudy
9:56 PM 71.8 °F 12.7 °F 10% 29.89 in 12.0 mi East 15.0 mph - N/A   Partly Cloudy
10:56 PM 70.3 °F 12.6 °F 11% 29.89 in 12.0 mi East 12.7 mph - N/A   Clear
11:56 PM 69.3 °F 12.2 °F 11% 29.89 in 12.0 mi ENE 11.5 mph - N/A   Clear